069  
ASUS43 KMPX 302110  
RWRMN  
WEATHER ROUNDUP FOR MINNESOTA  
NATIONAL WEATHER SERVICE TWIN CITIES/CHANHASSEN MN  
400 PM CDT WED JUL 30 2014  
 
NOTE: "FAIR" INDICATES FEW OR NO CLOUDS BELOW 12,000 FEET WITH NO  
SIGNIFICANT WEATHER AND/OR S TO VISIBILITY
. N/A MEANS  
CURRENT SKY AND/OR WEATHER CONDITIONS ARE NOT AVAILABLE.  
 
MNZ060>063-068>070-302200-  
TWIN CITIES METRO  
 
CITY SKY/WX TMP DP RH WIND PRES REMARKS
 
TWIN CITIES MOSUNNY 81 54 39 NW13G21 30.04F  
ST PAUL PTSUNNY 80 53 39 NW14G22 30.03F  
CRYSTAL MOSUNNY 82 53 36 NW13 30.03F  
BLAINE MOSUNNY 81 54 39 NW12G17 30.04F  
LAKEVILLE MOSUNNY 75 57 53 W6 30.05F  
EDEN PRAIRIE MOSUNNY 80 58 46 NW12 30.05F  
SOUTH ST PAUL MOSUNNY 80 53 38 W12 30.03F  
LAKE ELMO FAIR 79 59 50 NW10 30.04F  

 
MNZ001>005-007-008-013>017-022>024-027-028-302200-  
NORTHWEST MINNESOTA  
 
CITY SKY/WX TMP DP RH WIND PRES REMARKS
 
BEMIDJI MOSUNNY 76 55 47 NW10 30.07S  
HALLOCK SUNNY 81 54 39 NW8 30.06S  
ROSEAU SUNNY 79 61 53 W8 30.05S  
WARROAD MOSUNNY 79 61 53 NW9 30.04F  
THIEF RVR FALL MOSUNNY 75 54 46 W8 30.08S  
CROOKSTON MOSUNNY 79 55 44 NW7 30.08F  
FOSSTON MOSUNNY 75 54 46 W5 30.09F  
DETROIT LAKES SUNNY 77 50 38 NW9 30.11F  
MOORHEAD SUNNY 79 52 38 N7G22 30.09S  
PARK RAPIDS MOSUNNY 78 53 41 NW13 30.07F  

 
MNZ006-009>011-018-025>026-302200-  
NORTH CENTRAL MINNESOTA  
 
CITY SKY/WX TMP DP RH WIND PRES REMARKS
 
BAUDETTE SUNNY 78 55 44 NW8 30.04S  
FLAG ISLAND MOSUNNY 77 55 47 NW12 30.01S  
INTL FALLS PTSUNNY 76 56 49 N15 29.99F  
WASKISH PTSUNNY 77 61 57 W5 30.04S  
BIG FORK MOSUNNY 77 54 44 N5 30.03S  
LONGVILLE SUNNY 75 55 50 NW7 30.06F  
GRAND RAPIDS PTSUNNY 75 55 50 W14 30.03F  
CRANE LAKE PTSUNNY 72 57 60 N5 29.99F  
ORR SUNNY 77 54 44 NW9 29.97F  
COOK SUNNY 77 55 47 NW9G17 29.99F  

 
MNZ012-019>021-037-302200-  
NORTHEAST MINNESOTA  
 
CITY SKY/WX TMP DP RH WIND PRES REMARKS
 
DULUTH MOSUNNY 78 56 46 NW14G23 29.98F  
ELY MOSUNNY 72 57 60 NW5 29.98F  
HIBBING MOSUNNY 79 56 45 W15G21 30.00F  
EVELETH MOSUNNY 77 54 44 NW13G21 30.00F  
DULUTH HARBOR MOSUNNY 79 61 53 W17 29.95F  
TWO HARBORS MOSUNNY 75 57 53 NW7 29.94S  
SILVER BAY LGT RAIN 61 61 100 CALM 29.96R  
GRAND MARAIS N/A 53 50 89 SW5 29.92F  
G MARAIS ARPRT PTSUNNY 70 54 56 N12G21 29.96F  

 
MNZ029>031-032-039>041-046>048-054>057-064-302200-  
WEST CENTRAL MINNESOTA  
 
CITY SKY/WX TMP DP RH WIND PRES REMARKS
 
FERGUS FALLS SUNNY 79 48 34 N6 30.09S  
WHEATON SUNNY 73 55 53 W3 30.12S  
MORRIS MOSUNNY 79 55 44 NW3 30.10S  
ALEXANDRIA MOSUNNY 77 54 44 W9 30.11F  
ELBOW LAKE FAIR 76 55 49 NW5 30.10F  
WADENA MOSUNNY 77 55 47 NW8 30.08F  
GLENWOOD MOSUNNY 79 55 44 NW9 30.11S  
APPLETON SUNNY 81 52 36 NW7 30.10S  
BENSON SUNNY 79 55 44 N7 30.10F  
ORTONVILLE MOSUNNY 79 52 38 N6 30.11S  
MADISON SUNNY 81 54 39 N7 30.11S  
WILLMAR FAIR 79 52 38 NW8 30.11F  

 
MNZ033>034-036-042>043-049>051-058-059-302200-  
CENTRAL MINNESOTA  
 
CITY SKY/WX TMP DP RH WIND PRES REMARKS
 
ST CLOUD MOSUNNY 83 53 35 VRB7 30.06S  
SAUK CENTRE FAIR 77 55 45 N10 30.09S  
PAYNESVILLE MOSUNNY 77 50 37 W9 30.09F  
AITKIN MOSUNNY 79 59 50 NW7 30.03F  
PINE RIVER SUNNY 77 57 50 NW6 30.09S  
BRAINERD PTSUNNY 76 55 48 N7 30.06F  
STAPLES SUNNY 79 50 36 W7 30.07F  
LONG PRAIRIE FAIR 77 54 44 NW8 30.09F  
LITTLE FALLS MOSUNNY 79 50 36 W9 30.06F  
LITCHFIELD SUNNY 79 55 44 NW7 30.09S  
BUFFALO SUNNY 80 51 36 W7 30.07F  
MAPLE LAKE SUNNY 79 58 48 NW8 30.07F  

 
MNZ037-044-045-052-053-302200-  
EAST CENTRAL MINNESOTA  
 
CITY SKY/WX TMP DP RH WIND PRES REMARKS
 
PRINCETON SUNNY 81 55 41 W10 30.05F  
MORA SUNNY 75 54 46 NW12G17 30.05F  
CAMBRIDGE SUNNY 81 61 50 NW10 30.02F  
RUSH CITY SUNNY 78 56 47 NW8 30.03F  
MOOSE LAKE SUNNY 77 55 47 NW12G18 30.00F  
HINCKLEY FAIR 79 61 53 W10 30.02F  
CLOQUET SUNNY 79 54 41 NW14G20 30.00S  
MCGREGOR SUNNY 77 55 47 NW9 30.03F  

 
MNZ071>073-080-081-089-090-097-098-302200-  
SOUTHWEST MINNESOTA  
 
CITY SKY/WX TMP DP RH WIND PRES REMARKS
 
MONTEVIDEO MOSUNNY 81 55 41 N7 30.11F  
GRANITE FALLS SUNNY 77 56 47 W7 30.12F  
CANBY MOSUNNY 79 50 35 N3 30.12F  
MARSHALL SUNNY 77 52 41 NW6 30.11F  
REDWOOD FALLS SUNNY 78 54 43 N5 30.09F  
OLIVIA MOSUNNY 77 55 47 NW5 30.09F  
PIPESTONE PTSUNNY 77 54 44 NW3 30.14S  
WINDOM SUNNY 77 54 44 W8 30.13S  
WORTHINGTON SUNNY 75 52 43 NW5 30.15S  
JACKSON PTSUNNY 77 55 47 NW7 30.13S  
TRACY SUNNY 77 55 46 NW3 30.13S  
SLAYTON MOSUNNY 76 49 38 CALM 30.14F  

 
MNZ065>067-074>077-082>085-091>093-302200-  
SOUTH CENTRAL MINNESOTA  
 
CITY SKY/WX TMP DP RH WIND PRES REMARKS
 
MANKATO MOSUNNY 77 54 44 NW13 30.08F  
NEW ULM MOSUNNY 79 57 47 NW8 30.09S  
ST JAMES MOSUNNY 79 54 41 W7 30.11S  
FAIRMONT MOSUNNY 77 46 33 N8 30.11S  
GLENCOE SUNNY 79 52 39 NW7 30.07F  
FARIBAULT SUNNY 82 48 30 W7 30.07F  
OWATONNA SUNNY 79 54 41 NW7 30.07F  
WASECA SUNNY 77 54 44 NW8 30.10S  
ALBERT LEA SUNNY 79 55 44 W5 30.08F  

 
MNZ078>079-086>088-094>096-302200-  
SOUTHEAST MINNESOTA  
 
CITY SKY/WX TMP DP RH WIND PRES REMARKS
 
ROCHESTER SUNNY 79 58 48 NW6 30.08F  
RED WING SUNNY 81 55 41 NW7 30.02F  
STANTON MOSUNNY 80 56 43 NW12 30.04F  
DODGE CENTER MOSUNNY 77 55 47 NW10 30.07F  
WINONA SUNNY 79 57 47 NW6 30.05S  
AUSTIN MOSUNNY 77 55 47 NW10 30.07F  
PRESTON MOSUNNY 75 64 67 NW6 30.08F  

 
ABBREVIATIONS USED IN REMARKS  
TC - TEMPERATURES IN CELSIUS  
WCI - WIND CHILL INDEX  
HX - HEAT INDEX  
VSB - VISIBILITY  

 
 
CLICK HERE TO GO TO PREVIOUS BULLETINS.

The Nexlab MN Page Main Text Page